, CA

(GMT )
Point Mugu

Weather History for KNTD - March, 2013

Change the Weather History Date:

Friday, March 8, 2013

  Actual Average Record
Temperature  
Mean Temperature 52 °F -  
Max Temperature 58 °F 61 °F 88 °F (2014)
Min Temperature 47 °F 44 °F 32 °F (2012)
Degree Days  
Heating Degree Days 12    
Growing Degree Days 2 (Base 50)    
Moisture  
Dew Point 45 °F    
Average Humidity 71    
Maximum Humidity 81    
Minimum Humidity 61    
Precipitation  
Precipitation 0.67 in - - ()
Sea Level Pressure  
Sea Level Pressure 29.90 in    
Wind  
Wind Speed 8 mph (WNW)    
Max Wind Speed 25 mph    
Max Gust Speed 34 mph    
Visibility 7 miles    
Events Rain    
Averages and records for this station are not official NWS values.
T = Trace of Precipitation, MM = Missing Value Source: NWS Daily Summary

Daily Weather History Graph

Daily Weather History Graph

Search for Another Location

Airport or City:

Trip Planner

Search our weather history database for the weather conditions in past years. The results will help you decide how hot, cold, wet, or windy it might be!

Date:

Astronomy

Mar. 08, 2013 Rise Set
Actual Time 6:15 AM PST 5:58 PM PST
Civil Twilight 5:50 AM PST 6:23 PM PST
Nautical Twilight 5:21 AM PST 6:52 PM PST
Astronomical Twilight 4:52 AM PST 7:22 PM PST
Moon 3:56 AM PST (3/8) 3:05 PM PST (3/8)
Length of Visible Light 12h 33m
Length of Day
11h 43m
Waning Crescent, 11% of the Moon is Illuminated
Mar 8
Waning Crescent
Mar 11
New
Mar 19
First Quarter
Mar 27
Full
Apr 2
Last Quarter

Hourly Weather History & Observations

Time (PST) Temp. Dew Point Humidity Pressure Visibility Wind Dir Wind Speed Gust Speed Precip Events Conditions
12:05 AM - - N/A% 29.85 in - NNW 5.8 mph - N/A Rain Rain
12:54 AM - - N/A% 29.84 in - ENE 5.8 mph - N/A Rain Light Rain
1:06 AM - - N/A% 29.83 in - ENE 3.5 mph - N/A Rain Light Rain
1:54 AM - - N/A% 29.85 in - NW 9.2 mph 16.1 mph N/A Rain Light Rain
2:54 AM - - N/A% 29.82 in - Calm Calm - N/A   Overcast
3:54 AM - - N/A% 29.82 in - Calm Calm - N/A   Overcast
4:54 AM - - N/A% 29.83 in - Calm Calm - N/A   Mostly Cloudy
4:56 AM 50.0 °F 42.8 °F 76% 29.82 in 7.0 mi Calm Calm - N/A   Mostly Cloudy
5:54 AM 47.7 °F 42.1 °F 81% 29.83 in 7.0 mi Calm Calm - N/A   Mostly Cloudy
6:24 AM 50.0 °F 42.8 °F 76% 29.83 in 7.0 mi Calm Calm - N/A   Overcast
6:54 AM 49.1 °F 43.0 °F 79% 29.84 in 7.0 mi ESE 3.5 mph - N/A   Mostly Cloudy
7:54 AM 52.5 °F 43.9 °F 72% 29.87 in 7.0 mi Calm Calm - N/A   Scattered Clouds
8:54 AM 52.5 °F 43.5 °F 71% 29.89 in 7.0 mi West 4.6 mph - N/A   Mostly Cloudy
9:54 AM 54.5 °F 44.6 °F 69% 29.91 in 7.0 mi West 10.4 mph - N/A   Mostly Cloudy
10:54 AM 54.7 °F 42.4 °F 63% 29.91 in 7.0 mi West 11.5 mph - N/A   Mostly Cloudy
11:54 AM 55.8 °F 42.6 °F 61% 29.92 in 7.0 mi WSW 15.0 mph - N/A   Mostly Cloudy
12:54 PM 56.3 °F 43.3 °F 62% 29.91 in 7.0 mi WNW 13.8 mph - N/A   Mostly Cloudy
1:54 PM 58.1 °F 45.7 °F 63% 29.91 in 7.0 mi West 16.1 mph - N/A   Mostly Cloudy
2:54 PM 58.1 °F 47.8 °F 69% 29.91 in 7.0 mi West 16.1 mph 20.7 mph N/A   Scattered Clouds
3:54 PM 57.7 °F 47.5 °F 69% 29.90 in 7.0 mi West 13.8 mph - N/A   Partly Cloudy
4:54 PM 56.7 °F 46.6 °F 69% 29.90 in 7.0 mi West 20.7 mph - N/A   Scattered Clouds
5:54 PM 55.6 °F 48.9 °F 78% 29.93 in 7.0 mi West 18.4 mph 25.3 mph N/A   Mostly Cloudy
6:54 PM 56.8 °F 47.3 °F 70% 29.96 in 7.0 mi West 21.9 mph 32.2 mph N/A   Mostly Cloudy
7:54 PM 55.0 °F 46.9 °F 74% 29.98 in 7.0 mi West 25.3 mph 34.5 mph N/A   Mostly Cloudy
8:54 PM 54.1 °F 44.6 °F 70% 30.01 in 7.0 mi WNW 19.6 mph 34.5 mph N/A   Mostly Cloudy
9:54 PM 54.1 °F 47.7 °F 79% 30.03 in 7.0 mi WNW 20.7 mph 29.9 mph N/A   Overcast
10:54 PM 53.6 °F 44.6 °F 72% 30.02 in 7.0 mi West 23.0 mph 32.2 mph N/A   Overcast
11:54 PM - - N/A% 30.03 in - WNW 23.0 mph 31.1 mph N/A   Clear